Wind_Speed
13 14 14 14 15 14 14 13 14 13 12 12 12 12 12 12 12 13 13 13 13 14 14 15 15 16 17 18 18 19 19 19 19 19 19 20 20 20 21 20 20 20 20
14 14 15 15 15 15 15 15 15 13 12 12 12 12 12 12 13 13 14 14 14 15 15 16 17 18 19 20 20 20 20 20 20 20 20 21 21 21 22 22 22 22 22
15 15 15 15 15 15 15 15 15 14 13 13 13 13 13 13 13 14 15 15 15 16 16 17 18 18 19 19 19 19 20 20 20 21 21 21 22 23 23 23 24 24 24
15 16 16 15 14 14 15 15 14 14 14 14 14 14 13 13 14 15 16 16 16 17 18 18 18 18 18 19 19 20 20 20 21 23 23 23 23 24 25 25 24 24 25
16 15 15 15 16 15 16 16 16 16 15 15 15 15 15 15 16 17 17 17 18 18 18 19 19 19 20 20 21 21 22 22 23 24 24 23 24 25 26 26 26 26 27
16 16 16 17 17 17 17 17 18 17 17 17 17 17 17 16 17 17 17 18 18 18 19 19 19 20 21 22 22 23 23 24 24 24 24 24 24 25 26 27 28 28 28
17 17 18 18 18 18 19 19 18 18 18 19 18 18 17 17 17 17 17 18 18 19 20 20 20 21 22 23 24 24 24 24 24 24 24 24 25 25 26 28 28 29 30
19 19 19 19 19 19 19 19 19 20 19 19 19 18 18 17 17 18 18 19 19 20 21 21 22 22 22 23 24 24 24 24 25 25 25 26 26 27 28 29 29 30 30
20 20 20 20 20 20 20 20 20 20 20 19 19 19 18 19 19 19 20 20 20 21 22 22 22 22 23 23 24 24 24 25 25 26 27 28 28 28 29 30 30 30 31
21 21 21 21 20 20 21 21 21 21 21 20 20 20 20 20 20 21 21 21 22 22 22 22 23 24 24 24 25 25 26 27 27 28 28 28 29 30 30 31 31 31 32
22 21 22 22 22 22 23 22 23 22 22 21 21 21 21 21 21 21 22 23 23 24 24 24 24 24 25 26 27 27 27 28 29 29 30 29 29 30 31 31 32 33 33
24 23 23 23 24 24 24 23 23 23 23 22 22 22 22 22 23 23 23 24 24 24 25 25 25 26 27 27 28 29 29 29 29 30 30 30 30 30 31 31 32 33 34
25 25 25 24 25 26 25 24 24 24 24 23 22 23 24 24 24 24 25 26 26 27 27 27 27 28 29 29 29 30 30 30 30 30 30 30 31 31 32 32 33 34 35
26 26 25 26 26 26 25 25 25 25 24 24 24 24 25 25 24 25 26 27 28 29 29 28 29 29 30 30 30 31 31 31 31 31 32 32 32 33 33 34 34 35 36
27 27 27 26 26 26 26 25 25 25 25 25 25 25 25 26 26 27 29 29 30 30 29 29 29 30 30 30 30 30 31 32 33 33 33 34 34 35 35 35 36 37 37
27 26 26 26 25 26 25 25 26 26 26 27 27 27 27 28 28 28 29 30 30 30 30 30 30 30 30 30 31 32 32 33 33 34 35 36 36 36 37 37 38 38 39
26 26 25 25 25 26 26 26 26 27 27 28 27 28 28 29 29 29 30 31 31 30 30 30 31 31 32 32 32 33 33 34 34 35 36 37 37 37 38 38 39 39 40
26 26 25 26 26 26 26 25 26 27 28 28 28 28 29 29 29 30 30 30 30 29 30 31 32 32 32 33 34 34 35 36 36 37 37 37 37 38 38 39 39 39 40
25 25 25 25 26 25 25 25 25 26 26 26 27 27 28 28 28 29 29 29 29 30 31 32 33 34 34 34 35 36 37 37 37 37 37 37 38 39 39 39 39 39 40
24 24 24 25 25 25 25 26 26 26 26 25 25 26 26 27 27 28 28 29 30 31 32 32 32 33 34 35 36 36 37 37 37 37 37 38 38 39 39 39 39 40 41
24 24 24 24 25 25 26 26 26 26 25 24 24 25 26 27 27 28 28 29 30 30 31 31 32 32 33 34 35 36 37 37 37 38 38 38 38 39 39 39 40 40 39
24 24 24 25 25 25 25 26 25 25 25 24 24 26 27 28 28 28 29 29 30 31 31 31 32 33 34 35 36 36 36 36 37 38 38 38 38 39 39 38 38 38 38
24 24 24 25 25 25 25 25 26 26 26 26 27 27 28 28 28 28 29 29 30 31 31 32 32 33 34 34 35 35 36 36 37 38 38 38 38 38 38 38 38 37 38
23 24 24 25 24 24 25 25 25 26 26 27 27 27 27 27 28 28 29 29 30 31 32 32 33 33 34 34 35 35 35 36 37 38 38 38 38 37 37 37 36 36 36
23 24 24 23 23 24 25 25 25 25 25 26 26 26 27 27 28 29 30 30 31 32 32 33 34 34 35 35 36 35 35 36 37 37 36 36 36 35 34 34 34 34 34
22 22 22 22 23 23 23 24 24 25 25 26 26 26 26 28 29 30 30 31 32 33 34 34 35 35 35 35 35 35 35 35 35 35 34 34 34 33 33 33 33 33 33
Wind_Direction
295 296 298 298 302 303 304 304 305 302 300 301 300 292 289 286 284 283 283 282 283 282 282 283 285 285 285 285 287 290 291 293 293 293 294 293 291 290 288 286 285 284 285
292 293 293 295 298 300 301 302 304 303 300 300 300 295 289 286 284 283 284 284 283 283 284 285 287 289 289 287 287 290 291 292 292 292 293 293 293 292 290 287 286 285 285
288 292 293 296 296 297 297 300 301 301 299 298 298 294 288 287 287 286 288 286 285 286 287 288 289 291 292 293 293 293 292 293 293 293 292 293 294 295 292 291 289 288 286
285 290 296 298 297 295 295 297 298 296 294 292 291 291 291 290 291 290 291 289 287 288 288 290 291 291 293 295 296 295 293 294 295 295 294 293 292 292 293 291 290 289 289
282 286 292 297 298 297 296 295 295 294 292 289 289 289 288 289 292 293 292 292 290 292 293 292 291 292 294 296 297 296 295 295 297 297 295 295 293 292 292 291 289 289 289
280 283 288 294 295 295 297 296 295 293 292 290 288 289 287 288 291 294 294 294 293 293 294 293 292 293 295 296 297 297 297 297 299 299 297 297 295 293 292 293 291 290 290
278 282 286 290 291 292 294 295 295 294 295 291 288 289 286 288 291 294 294 295 293 293 294 294 294 295 296 296 296 296 297 298 299 299 298 297 296 293 293 294 293 291 290
279 283 287 290 292 292 292 294 294 294 294 291 287 287 287 287 289 293 294 296 294 294 294 294 295 296 297 296 296 297 298 298 298 298 299 298 296 294 293 294 293 291 292
277 281 285 288 291 291 290 292 293 293 295 294 287 284 285 286 289 292 294 296 296 295 294 294 295 297 299 300 299 299 299 299 298 297 297 297 297 296 296 296 295 293 293
276 280 283 286 288 291 291 291 293 292 291 290 288 286 286 287 288 291 294 296 296 295 293 293 295 297 299 301 301 300 299 299 298 298 297 297 297 296 296 296 296 295 294
274 279 282 282 284 288 290 289 290 291 290 288 287 285 285 287 288 290 294 296 297 296 294 293 296 298 298 299 300 300 300 299 298 297 298 298 297 298 298 297 297 297 296
272 276 280 281 281 284 286 287 289 290 290 289 287 285 283 285 288 290 292 295 296 296 295 295 296 298 298 299 299 299 299 299 297 297 298 297 298 299 299 299 300 300 299
269 274 278 279 280 282 283 285 288 289 288 287 286 286 286 287 288 289 292 293 294 296 296 296 297 297 298 299 299 299 299 299 299 298 298 298 298 298 299 300 300 300 300
268 271 275 279 282 283 284 284 285 285 285 284 285 286 287 288 289 291 292 292 293 294 295 295 296 297 297 298 298 297 297 298 298 298 298 298 298 298 298 299 300 300 301
266 270 274 277 280 278 278 280 282 283 283 284 285 287 289 291 291 292 292 291 293 294 294 295 295 296 297 297 297 296 297 298 298 298 298 298 298 298 298 299 300 300 300
266 269 273 275 277 278 278 279 280 281 282 284 286 288 290 291 291 292 293 293 294 295 295 295 295 295 295 296 297 297 298 299 299 298 298 298 298 298 298 299 299 299 300
267 269 273 275 276 279 280 280 281 282 283 285 287 288 291 292 292 293 293 294 294 295 295 295 295 295 295 296 297 298 299 300 300 300 300 300 299 298 298 298 299 299 300
267 269 272 275 277 279 280 281 283 284 283 285 286 289 291 292 293 294 294 295 294 294 294 295 296 297 297 297 298 299 300 300 301 301 301 301 299 299 299 299 299 300 301
267 269 272 276 277 279 280 281 284 285 284 285 287 289 291 293 294 294 295 295 295 296 296 297 297 297 297 297 298 299 300 301 301 301 301 301 301 300 300 300 301 301 301
268 271 273 275 278 279 282 282 284 286 286 287 289 293 296 296 296 296 296 296 295 296 297 297 297 297 297 298 299 300 301 301 301 301 302 302 301 301 301 301 302 301 301
269 272 274 276 277 279 282 284 285 287 287 287 291 294 296 298 297 297 297 298 297 298 299 299 299 299 300 301 301 302 302 302 302 302 303 303 303 303 303 303 302 302 301
270 273 275 276 276 279 283 286 286 289 291 291 293 295 296 297 297 297 298 299 300 301 301 301 301 301 301 302 303 303 303 303 303 304 304 304 304 305 305 304 303 303 301
270 273 275 276 278 280 283 285 287 289 291 292 293 294 295 297 299 299 301 302 303 304 304 304 303 303 304 305 305 304 305 305 305 306 305 306 306 306 305 305 305 304 303
269 272 275 277 278 280 283 286 288 290 291 291 293 294 295 297 299 300 301 302 304 305 307 307 306 306 306 306 306 306 306 306 307 307 307 308 307 306 306 306 307 307 306
270 273 275 277 280 283 285 287 290 292 293 294 294 295 297 299 300 301 301 302 304 306 307 307 308 307 307 307 307 307 307 308 309 310 310 310 309 309 308 309 310 310 308
270 274 278 280 282 285 287 290 292 292 293 295 296 296 298 300 301 302 303 304 305 306 307 307 307 307 307 308 308 308 309 311 312 312 312 311 310 310 311 311 311 311 310
Height
5892 5892 5892 5891 5890 5889 5888 5887 5886 5885 5884 5884 5883 5883 5883 5882 5882 5882 5881 5881 5881 5880 5880 5880 5879 5878 5877 5877 5876 5875 5874 5873 5872 5871 5870 5869 5867 5866 5865 5864 5863 5862 5862
5889 5889 5888 5888 5887 5887 5886 5885 5884 5883 5882 5881 5881 5880 5880 5880 5879 5879 5878 5878 5877 5877 5877 5876 5875 5874 5873 5872 5871 5870 5869 5868 5867 5866 5865 5864 5862 5861 5860 5859 5858 5857 5856
5886 5886 5885 5884 5884 5884 5883 5882 5881 5880 5880 5879 5878 5878 5877 5877 5876 5876 5875 5874 5874 5873 5873 5872 5871 5870 5869 5868 5866 5865 5864 5863 5862 5861 5860 5858 5857 5856 5854 5853 5851 5850 5849
5883 5883 5882 5881 5881 5880 5879 5879 5878 5878 5877 5876 5876 5875 5874 5874 5873 5872 5872 5871 5870 5869 5868 5867 5866 5865 5864 5863 5862 5860 5859 5858 5856 5855 5854 5853 5851 5850 5848 5847 5845 5843 5842
5880 5880 5879 5878 5877 5877 5876 5875 5875 5874 5874 5873 5872 5872 5871 5870 5870 5869 5868 5867 5866 5865 5864 5863 5862 5861 5859 5858 5857 5855 5854 5853 5851 5849 5848 5846 5845 5843 5841 5840 5838 5837 5835
5877 5876 5876 5875 5874 5873 5873 5872 5871 5871 5870 5870 5869 5868 5868 5867 5866 5865 5864 5863 5861 5861 5860 5859 5857 5856 5855 5853 5852 5850 5849 5847 5845 5843 5841 5840 5838 5836 5834 5832 5831 5829 5828
5873 5872 5872 5871 5871 5870 5870 5869 5868 5867 5866 5866 5865 5865 5864 5863 5862 5861 5860 5859 5858 5857 5855 5854 5853 5851 5850 5848 5846 5845 5843 5841 5839 5837 5835 5833 5831 5829 5827 5825 5823 5821 5819
5869 5868 5868 5867 5866 5866 5865 5865 5864 5863 5862 5861 5861 5860 5859 5859 5858 5857 5856 5855 5853 5852 5851 5849 5848 5846 5844 5842 5840 5839 5837 5835 5832 5830 5829 5826 5824 5822 5819 5817 5815 5813 5811
5864 5864 5864 5863 5862 5862 5861 5860 5859 5858 5858 5857 5856 5855 5855 5854 5854 5853 5851 5850 5849 5847 5845 5844 5842 5841 5839 5837 5835 5833 5831 5828 5826 5824 5822 5819 5817 5814 5812 5809 5807 5805 5803
5860 5859 5859 5859 5858 5858 5857 5856 5855 5854 5853 5852 5851 5850 5850 5849 5849 5848 5846 5845 5844 5842 5840 5838 5837 5835 5833 5831 5829 5826 5824 5822 5820 5817 5815 5812 5809 5806 5804 5801 5798 5796 5793
5855 5855 5854 5854 5854 5853 5852 5851 5850 5848 5847 5847 5846 5845 5845 5844 5843 5842 5841 5840 5838 5836 5834 5833 5831 5829 5827 5824 5822 5820 5817 5815 5812 5810 5807 5804 5801 5798 5795 5793 5790 5787 5784
5849 5849 5849 5849 5848 5847 5846 5845 5845 5843 5842 5842 5841 5839 5839 5838 5837 5836 5835 5834 5832 5830 5828 5827 5825 5822 5820 5817 5815 5812 5810 5807 5805 5802 5799 5796 5793 5790 5787 5784 5781 5778 5774
5843 5844 5843 5843 5842 5841 5840 5840 5839 5838 5837 5836 5836 5835 5833 5832 5831 5830 5829 5827 5826 5824 5822 5820 5817 5815 5813 5810 5808 5805 5802 5799 5796 5794 5791 5788 5785 5782 5779 5776 5772 5769 5765
5837 5837 5837 5837 5836 5834 5834 5834 5833 5832 5831 5830 5829 5828 5827 5826 5825 5824 5822 5821 5819 5817 5815 5812 5810 5808 5805 5802 5800 5797 5794 5791 5788 5785 5782 5779 5776 5773 5770 5767 5763 5759 5756
5830 5830 5830 5830 5829 5828 5828 5827 5827 5826 5825 5824 5823 5822 5821 5820 5818 5817 5815 5813 5811 5809 5807 5804 5802 5800 5797 5794 5791 5789 5786 5783 5780 5776 5773 5770 5767 5763 5760 5756 5753 5749 5745
5823 5823 5823 5823 5823 5822 5821 5821 5820 5819 5818 5818 5817 5816 5814 5813 5811 5809 5807 5805 5803 5801 5799 5796 5794 5791 5788 5786 5783 5780 5777 5774 5771 5767 5764 5760 5757 5753 5750 5746 5742 5738 5734
5816 5816 5817 5816 5816 5816 5815 5815 5814 5813 5812 5811 5810 5809 5807 5805 5803 5801 5799 5797 5795 5793 5790 5788 5785 5783 5780 5777 5774 5771 5768 5765 5761 5758 5754 5750 5746 5743 5739 5735 5731 5727 5723
5809 5809 5810 5810 5810 5809 5809 5808 5807 5806 5805 5804 5802 5801 5799 5797 5795 5793 5791 5789 5787 5784 5782 5780 5777 5774 5771 5768 5765 5762 5758 5755 5751 5748 5744 5740 5736 5732 5728 5724 5720 5716 5712
5803 5803 5803 5803 5803 5803 5802 5801 5800 5799 5798 5797 5795 5794 5792 5790 5787 5785 5783 5781 5779 5776 5774 5771 5768 5765 5762 5759 5756 5752 5749 5745 5741 5737 5733 5729 5725 5721 5717 5713 5708 5704 5700
5797 5797 5797 5797 5797 5796 5796 5795 5794 5793 5791 5790 5788 5787 5784 5782 5780 5778 5775 5773 5771 5768 5765 5762 5759 5756 5753 5749 5746 5742 5739 5735 5731 5727 5723 5719 5714 5710 5706 5701 5697 5693 5688
5791 5791 5791 5791 5791 5790 5789 5788 5787 5786 5784 5783 5781 5779 5777 5775 5773 5771 5768 5765 5763 5759 5756 5753 5750 5747 5743 5740 5736 5732 5729 5725 5721 5716 5712 5708 5704 5699 5694 5690 5686 5681 5676
5785 5786 5785 5785 5784 5784 5783 5781 5780 5779 5778 5776 5774 5772 5770 5768 5766 5763 5760 5757 5754 5751 5748 5744 5741 5738 5734 5730 5727 5723 5719 5714 5710 5706 5702 5697 5693 5689 5684 5679 5675 5670 5665
5779 5779 5779 5778 5778 5777 5776 5775 5774 5772 5771 5769 5767 5765 5763 5761 5758 5755 5752 5750 5746 5743 5739 5736 5732 5729 5725 5721 5717 5713 5709 5705 5701 5696 5692 5687 5682 5678 5673 5669 5664 5659 5655
5773 5773 5772 5772 5771 5770 5769 5768 5767 5765 5763 5762 5760 5758 5755 5753 5751 5748 5745 5742 5739 5735 5731 5728 5724 5720 5716 5712 5708 5704 5700 5695 5690 5686 5681 5677 5672 5667 5663 5658 5654 5649 5645
5767 5767 5766 5766 5765 5764 5763 5762 5760 5759 5757 5755 5753 5750 5748 5746 5743 5740 5737 5734 5731 5727 5723 5720 5715 5711 5707 5703 5699 5695 5690 5686 5681 5676 5671 5667 5662 5658 5653 5649 5644 5640 5636
5761 5760 5760 5759 5759 5758 5756 5755 5753 5752 5750 5748 5746 5743 5741 5739 5736 5733 5729 5726 5722 5718 5715 5711 5707 5703 5698 5694 5690 5685 5681 5676 5672 5667 5662 5658 5654 5649 5645 5640 5636 5631 5627